Time,TemperatureF,DewpointF,PressureIn,WindDirection,WindDirectionDegrees,WindSpeedMPH,WindSpeedGustMPH,Humidity,HourlyPrecipIn,Conditions,Clouds,dailyrainin,SoftwareType,DateUTC
2013-03-21 00:00:00,24.8,18.3,29.68,WSW,248,1.1,1.6,76,0.00,,,0.00,VWS V14.01,2013-03-21 04:00:00,
2013-03-21 00:06:00,25.5,18.7,29.68,SSW,202,0.0,1.3,75,0.00,,,0.00,VWS V14.01,2013-03-21 04:06:00,
2013-03-21 00:11:00,24.8,17.7,29.68,SSW,202,1.3,2.0,74,0.00,,,0.00,VWS V14.01,2013-03-21 04:11:00,
2013-03-21 00:16:00,25.2,18.4,29.68,SSW,202,1.6,2.0,75,0.00,,,0.00,VWS V14.01,2013-03-21 04:16:00,
2013-03-21 00:21:00,25.0,18.2,29.68,South,180,1.3,2.7,75,0.00,,,0.00,VWS V14.01,2013-03-21 04:21:00,
2013-03-21 00:26:00,24.8,18.0,29.68,South,180,0.0,1.6,75,0.00,,,0.00,VWS V14.01,2013-03-21 04:26:00,
2013-03-21 00:30:00,25.2,18.7,29.68,WNW,292,2.7,3.8,76,0.00,,,0.00,VWS V14.01,2013-03-21 04:30:00,
2013-03-21 00:31:00,24.4,17.7,29.68,South,180,2.5,2.5,75,0.00,,,0.00,VWS V14.01,2013-03-21 04:31:00,
2013-03-21 00:36:00,25.2,19.0,29.68,SSW,202,1.3,2.5,77,0.00,,,0.00,VWS V14.01,2013-03-21 04:36:00,
2013-03-21 00:41:00,25.3,19.1,29.68,WSW,248,1.1,2.7,77,0.00,,,0.00,VWS V14.01,2013-03-21 04:41:00,
2013-03-21 00:46:00,25.2,19.0,29.68,WSW,248,1.6,1.6,77,0.00,,,0.00,VWS V14.01,2013-03-21 04:46:00,
2013-03-21 00:51:00,25.0,18.5,29.68,WSW,248,1.3,2.0,76,0.00,,,0.00,VWS V14.01,2013-03-21 04:51:00,
2013-03-21 00:56:00,24.8,18.3,29.68,WSW,248,1.6,2.0,76,0.00,,,0.00,VWS V14.01,2013-03-21 04:56:00,
2013-03-21 01:00:00,23.7,17.3,29.68,NW,315,2.5,2.5,76,0.00,,,0.00,VWS V14.01,2013-03-21 05:00:00,
2013-03-21 01:02:00,24.4,18.0,29.68,WNW,292,0.9,0.9,76,0.00,,,0.00,VWS V14.01,2013-03-21 05:02:00,
2013-03-21 01:07:00,24.8,18.3,29.68,WSW,248,3.4,3.4,76,0.00,,,0.00,VWS V14.01,2013-03-21 05:07:00,
2013-03-21 01:12:00,25.2,19.0,29.68,SW,225,3.4,3.4,77,0.00,,,0.00,VWS V14.01,2013-03-21 05:12:00,
2013-03-21 01:17:00,25.2,18.7,29.68,SW,225,1.6,1.6,76,0.00,,,0.00,VWS V14.01,2013-03-21 05:17:00,
2013-03-21 01:22:00,25.2,18.7,29.68,WSW,248,2.2,2.2,76,0.00,,,0.00,VWS V14.01,2013-03-21 05:22:00,
2013-03-21 01:27:00,25.0,18.2,29.68,WNW,292,1.3,2.2,75,0.00,,,0.00,VWS V14.01,2013-03-21 05:27:00,
2013-03-21 01:30:00,24.6,16.9,29.68,WNW,292,2.2,4.0,72,0.00,,,0.00,VWS V14.01,2013-03-21 05:30:00,
2013-03-21 01:32:00,24.1,16.7,29.68,WNW,292,2.2,2.7,73,0.00,,,0.00,VWS V14.01,2013-03-21 05:32:00,
2013-03-21 01:37:00,23.9,16.5,29.68,NW,315,0.9,2.5,73,0.00,,,0.00,VWS V14.01,2013-03-21 05:37:00,
2013-03-21 01:42:00,22.8,15.2,29.68,NW,315,2.0,2.0,72,0.00,,,0.00,VWS V14.01,2013-03-21 05:42:00,
2013-03-21 01:47:00,22.6,15.3,29.68,NW,315,3.4,3.4,73,0.00,,,0.00,VWS V14.01,2013-03-21 05:47:00,
2013-03-21 01:52:00,23.7,17.0,29.68,NNW,338,2.9,3.1,75,0.00,,,0.00,VWS V14.01,2013-03-21 05:52:00,
2013-03-21 01:57:00,23.9,17.5,29.68,NNW,338,3.4,3.4,76,0.00,,,0.00,VWS V14.01,2013-03-21 05:57:00,
2013-03-21 02:00:00,23.9,14.9,29.68,NW,315,2.5,3.6,68,0.00,,,0.00,VWS V14.01,2013-03-21 06:00:00,
2013-03-21 02:02:00,23.5,16.8,29.68,NW,315,2.0,2.0,75,0.00,,,0.00,VWS V14.01,2013-03-21 06:02:00,
2013-03-21 02:07:00,24.3,17.8,29.68,WNW,292,1.3,4.3,76,0.00,,,0.00,VWS V14.01,2013-03-21 06:07:00,
2013-03-21 02:12:00,24.4,17.7,29.68,WNW,292,6.5,6.5,75,0.00,,,0.00,VWS V14.01,2013-03-21 06:12:00,
2013-03-21 02:17:00,24.6,17.5,29.68,WNW,292,2.0,2.2,74,0.00,,,0.00,VWS V14.01,2013-03-21 06:17:00,
2013-03-21 02:22:00,24.3,16.5,29.68,NW,315,3.1,4.0,72,0.00,,,0.00,VWS V14.01,2013-03-21 06:22:00,
2013-03-21 02:28:00,24.8,17.1,29.68,NW,315,3.1,3.4,72,0.00,,,0.00,VWS V14.01,2013-03-21 06:28:00,
2013-03-21 02:30:00,23.2,14.5,29.68,WNW,292,2.7,4.0,69,0.00,,,0.00,VWS V14.01,2013-03-21 06:30:00,
2013-03-21 02:33:00,24.4,16.1,29.68,NW,315,2.9,2.9,70,0.00,,,0.00,VWS V14.01,2013-03-21 06:33:00,
2013-03-21 02:38:00,24.6,16.2,29.68,NW,315,0.9,4.0,70,0.00,,,0.00,VWS V14.01,2013-03-21 06:38:00,
2013-03-21 02:43:00,24.4,15.7,29.68,NW,315,2.9,3.1,69,0.00,,,0.00,VWS V14.01,2013-03-21 06:43:00,
2013-03-21 02:48:00,24.3,15.2,29.68,NNW,338,1.1,2.9,68,0.00,,,0.00,VWS V14.01,2013-03-21 06:48:00,
2013-03-21 02:53:00,23.9,14.9,29.68,NW,315,3.6,3.6,68,0.00,,,0.00,VWS V14.01,2013-03-21 06:53:00,
2013-03-21 02:58:00,24.3,15.6,29.68,WNW,292,2.0,2.0,69,0.00,,,0.00,VWS V14.01,2013-03-21 06:58:00,
2013-03-21 03:00:00,21.9,13.6,29.68,WNW,292,0.0,1.1,70,0.00,,,0.00,VWS V14.01,2013-03-21 07:00:00,
2013-03-21 03:03:00,23.7,14.7,29.68,WNW,292,1.3,2.0,68,0.00,,,0.00,VWS V14.01,2013-03-21 07:03:00,
2013-03-21 03:08:00,23.9,15.2,29.68,WNW,292,1.6,2.9,69,0.00,,,0.00,VWS V14.01,2013-03-21 07:08:00,
2013-03-21 03:13:00,23.7,15.1,29.68,NW,315,0.0,1.6,69,0.00,,,0.00,VWS V14.01,2013-03-21 07:13:00,
2013-03-21 03:18:00,23.2,14.2,29.68,NW,315,1.6,2.0,68,0.00,,,0.00,VWS V14.01,2013-03-21 07:18:00,
2013-03-21 03:23:00,23.0,14.4,29.68,WNW,292,4.0,4.0,69,0.00,,,0.00,VWS V14.01,2013-03-21 07:23:00,
2013-03-21 03:28:00,23.0,14.7,29.68,WNW,292,0.0,1.3,70,0.00,,,0.00,VWS V14.01,2013-03-21 07:28:00,
2013-03-21 03:30:00,22.8,15.2,29.68,WNW,292,1.1,2.0,72,0.00,,,0.00,VWS V14.01,2013-03-21 07:30:00,
2013-03-21 03:33:00,22.8,14.5,29.68,WNW,292,0.0,1.6,70,0.00,,,0.00,VWS V14.01,2013-03-21 07:33:00,
2013-03-21 03:38:00,22.5,14.2,29.68,WNW,292,0.0,1.6,70,0.00,,,0.00,VWS V14.01,2013-03-21 07:38:00,
2013-03-21 03:43:00,21.9,13.3,29.68,WNW,292,1.6,2.0,69,0.00,,,0.00,VWS V14.01,2013-03-21 07:43:00,
2013-03-21 03:48:00,21.9,13.6,29.68,WNW,292,0.0,1.3,70,0.00,,,0.00,VWS V14.01,2013-03-21 07:48:00,
2013-03-21 03:53:00,21.9,13.6,29.68,WNW,292,1.1,1.1,70,0.00,,,0.00,VWS V14.01,2013-03-21 07:53:00,
2013-03-21 03:58:00,21.9,13.6,29.68,WNW,292,1.1,2.7,70,0.00,,,0.00,VWS V14.01,2013-03-21 07:58:00,
2013-03-21 04:00:00,21.7,13.5,29.68,WNW,292,0.0,1.3,70,0.00,,,0.00,VWS V14.01,2013-03-21 08:00:00,
2013-03-21 04:03:00,22.3,14.3,29.65,WNW,292,2.5,2.7,71,0.00,,,0.00,VWS V14.01,2013-03-21 08:03:00,
2013-03-21 04:08:00,22.8,15.5,29.65,WNW,292,3.6,3.6,73,0.00,,,0.00,VWS V14.01,2013-03-21 08:08:00,
2013-03-21 04:13:00,22.6,15.0,29.65,WNW,292,2.9,2.9,72,0.00,,,0.00,VWS V14.01,2013-03-21 08:13:00,
2013-03-21 04:18:00,22.6,15.0,29.68,WNW,292,0.0,2.5,72,0.00,,,0.00,VWS V14.01,2013-03-21 08:18:00,
2013-03-21 04:23:00,22.8,15.2,29.68,WNW,292,1.1,2.0,72,0.00,,,0.00,VWS V14.01,2013-03-21 08:23:00,
2013-03-21 04:28:00,22.1,14.1,29.68,WNW,292,1.6,1.6,71,0.00,,,0.00,VWS V14.01,2013-03-21 08:28:00,
2013-03-21 04:30:00,14.4,6.1,29.71,NNW,338,0.0,0.9,69,0.00,,,0.00,VWS V14.01,2013-03-21 08:30:00,
2013-03-21 04:33:00,22.1,13.8,29.68,WNW,292,2.5,2.9,70,0.00,,,0.00,VWS V14.01,2013-03-21 08:33:00,
2013-03-21 04:38:00,22.1,14.1,29.68,WNW,292,1.1,1.1,71,0.00,,,0.00,VWS V14.01,2013-03-21 08:38:00,
2013-03-21 04:43:00,22.3,14.3,29.68,WNW,292,2.9,2.9,71,0.00,,,0.00,VWS V14.01,2013-03-21 08:43:00,
2013-03-21 04:48:00,22.1,14.1,29.68,WNW,292,0.0,1.3,71,0.00,,,0.00,VWS V14.01,2013-03-21 08:48:00,
2013-03-21 04:53:00,21.9,14.0,29.68,WNW,292,0.0,0.0,71,0.00,,,0.00,VWS V14.01,2013-03-21 08:53:00,
2013-03-21 04:58:00,21.4,13.1,29.68,WNW,292,0.0,0.0,70,0.00,,,0.00,VWS V14.01,2013-03-21 08:58:00,
2013-03-21 05:00:00,11.5,3.9,29.71,NNW,338,1.3,1.3,71,0.00,,,0.00,VWS V14.01,2013-03-21 09:00:00,
2013-03-21 05:03:00,19.9,10.4,29.68,WNW,292,1.3,2.0,66,0.00,,,0.00,VWS V14.01,2013-03-21 09:03:00,
2013-03-21 05:08:00,17.2,7.2,29.68,NW,315,1.1,2.7,64,0.00,,,0.00,VWS V14.01,2013-03-21 09:08:00,
2013-03-21 05:13:00,15.3,5.3,29.68,NNW,338,2.0,2.5,64,0.00,,,0.00,VWS V14.01,2013-03-21 09:13:00,
2013-03-21 05:18:00,14.7,5.8,29.71,NNW,338,0.9,1.3,67,0.00,,,0.00,VWS V14.01,2013-03-21 09:18:00,
2013-03-21 05:23:00,14.4,6.1,29.71,NNW,338,0.0,0.0,69,0.00,,,0.00,VWS V14.01,2013-03-21 09:23:00,
2013-03-21 05:28:00,14.2,6.5,29.71,NNW,338,1.1,1.6,71,0.00,,,0.00,VWS V14.01,2013-03-21 09:28:00,
2013-03-21 05:30:00,9.7,2.2,29.71,NNW,338,0.0,0.0,71,0.00,,,0.00,VWS V14.01,2013-03-21 09:30:00,
2013-03-21 05:33:00,12.9,5.3,29.71,NNW,338,1.1,2.0,71,0.00,,,0.00,VWS V14.01,2013-03-21 09:33:00,
2013-03-21 05:38:00,12.6,5.0,29.71,NNW,338,0.0,0.0,71,0.00,,,0.00,VWS V14.01,2013-03-21 09:38:00,
2013-03-21 05:43:00,12.2,4.6,29.71,NNW,338,0.0,0.0,71,0.00,,,0.00,VWS V14.01,2013-03-21 09:43:00,
2013-03-21 05:48:00,12.2,4.6,29.71,NNW,338,0.0,1.1,71,0.00,,,0.00,VWS V14.01,2013-03-21 09:48:00,
2013-03-21 05:53:00,11.5,3.9,29.71,NNW,338,1.3,1.3,71,0.00,,,0.00,VWS V14.01,2013-03-21 09:53:00,
2013-03-21 05:58:00,10.9,3.4,29.71,NNW,338,1.6,1.6,71,0.00,,,0.00,VWS V14.01,2013-03-21 09:58:00,
2013-03-21 06:00:00,8.1,0.6,29.74,NNW,338,2.0,2.0,71,0.00,,,0.00,VWS V14.01,2013-03-21 10:00:00,
2013-03-21 06:03:00,10.8,3.2,29.71,NNW,338,2.0,2.0,71,0.00,,,0.00,VWS V14.01,2013-03-21 10:03:00,
2013-03-21 06:08:00,11.1,3.6,29.71,NNW,338,1.1,2.2,71,0.00,,,0.00,VWS V14.01,2013-03-21 10:08:00,
2013-03-21 06:13:00,10.8,3.2,29.71,NNW,338,1.3,1.3,71,0.00,,,0.00,VWS V14.01,2013-03-21 10:13:00,
2013-03-21 06:18:00,10.4,2.9,29.71,NNW,338,0.0,0.0,71,0.00,,,0.00,VWS V14.01,2013-03-21 10:18:00,
2013-03-21 06:23:00,10.0,2.5,29.71,NNW,338,0.0,0.0,71,0.00,,,0.00,VWS V14.01,2013-03-21 10:23:00,
2013-03-21 06:28:00,9.3,1.8,29.71,NNW,338,1.3,1.6,71,0.00,,,0.00,VWS V14.01,2013-03-21 10:28:00,
2013-03-21 06:30:00,8.4,1.0,29.74,NNW,338,0.0,0.0,71,0.00,,,0.00,VWS V14.01,2013-03-21 10:30:00,
2013-03-21 06:33:00,8.8,1.3,29.74,NNW,338,0.9,2.2,71,0.00,,,0.00,VWS V14.01,2013-03-21 10:33:00,
2013-03-21 06:38:00,9.3,1.8,29.74,NNW,338,1.6,1.6,71,0.00,,,0.00,VWS V14.01,2013-03-21 10:38:00,
2013-03-21 06:43:00,9.5,2.0,29.74,NNW,338,1.1,2.0,71,0.00,,,0.00,VWS V14.01,2013-03-21 10:43:00,
2013-03-21 06:48:00,9.0,1.5,29.74,NNW,338,1.6,2.0,71,0.00,,,0.00,VWS V14.01,2013-03-21 10:48:00,
2013-03-21 06:53:00,8.1,0.6,29.74,NNW,338,2.0,2.2,71,0.00,,,0.00,VWS V14.01,2013-03-21 10:53:00,
2013-03-21 06:58:00,8.1,0.6,29.74,NNW,338,1.3,1.6,71,0.00,,,0.00,VWS V14.01,2013-03-21 10:58:00,
2013-03-21 07:00:00,12.2,4.6,29.74,NNW,338,3.4,3.6,71,0.00,,,0.00,VWS V14.01,2013-03-21 11:00:00,
2013-03-21 07:03:00,8.1,0.6,29.74,NNW,338,0.0,0.0,71,0.00,,,0.00,VWS V14.01,2013-03-21 11:03:00,
2013-03-21 07:08:00,8.1,0.6,29.74,NNW,338,0.0,0.0,71,0.00,,,0.00,VWS V14.01,2013-03-21 11:08:00,
2013-03-21 07:13:00,7.9,0.4,29.74,NNW,338,0.0,0.0,71,0.00,,,0.00,VWS V14.01,2013-03-21 11:13:00,
2013-03-21 07:18:00,8.2,0.8,29.74,NNW,338,0.0,0.9,71,0.00,,,0.00,VWS V14.01,2013-03-21 11:18:00,
2013-03-21 07:23:00,8.4,1.0,29.74,NNW,338,0.0,0.0,71,0.00,,,0.00,VWS V14.01,2013-03-21 11:23:00,
2013-03-21 07:29:00,8.8,1.3,29.74,NNW,338,0.9,1.1,71,0.00,,,0.00,VWS V14.01,2013-03-21 11:29:00,
2013-03-21 07:30:00,23.0,22.0,29.74,NNW,338,3.4,4.3,96,0.00,,,0.00,VWS V14.01,2013-03-21 11:30:00,
2013-03-21 07:34:00,9.7,2.2,29.74,NNW,338,1.3,2.0,71,0.00,,,0.00,VWS V14.01,2013-03-21 11:34:00,
2013-03-21 07:39:00,10.0,2.5,29.74,NNW,338,0.0,0.0,71,0.00,,,0.00,VWS V14.01,2013-03-21 11:39:00,
2013-03-21 07:44:00,10.2,2.7,29.74,NNW,338,1.6,1.6,71,0.00,,,0.00,VWS V14.01,2013-03-21 11:44:00,
2013-03-21 07:49:00,10.9,3.4,29.74,NNW,338,1.3,2.0,71,0.00,,,0.00,VWS V14.01,2013-03-21 11:49:00,
2013-03-21 07:54:00,12.2,4.6,29.74,NNW,338,3.4,3.6,71,0.00,,,0.00,VWS V14.01,2013-03-21 11:54:00,
2013-03-21 07:59:00,13.3,5.7,29.74,NNW,338,0.0,1.6,71,0.00,,,0.00,VWS V14.01,2013-03-21 11:59:00,
2013-03-21 08:00:00,30.4,14.0,29.71,West,270,2.0,2.9,50,0.00,,,0.00,VWS V14.01,2013-03-21 12:00:00,
2013-03-21 08:04:00,17.6,14.9,29.74,NNW,338,3.6,3.6,89,0.00,,,0.00,VWS V14.01,2013-03-21 12:04:00,
2013-03-21 08:09:00,19.4,18.0,29.74,NNW,338,2.7,3.1,94,0.00,,,0.00,VWS V14.01,2013-03-21 12:09:00,
2013-03-21 08:14:00,20.5,19.5,29.74,NNW,338,3.8,4.3,96,0.00,,,0.00,VWS V14.01,2013-03-21 12:14:00,
2013-03-21 08:19:00,21.6,20.6,29.74,NNW,338,3.6,5.6,96,0.00,,,0.00,VWS V14.01,2013-03-21 12:19:00,
2013-03-21 08:24:00,23.0,22.0,29.74,NNW,338,3.4,4.3,96,0.00,,,0.00,VWS V14.01,2013-03-21 12:24:00,
2013-03-21 08:29:00,25.3,23.4,29.74,NNW,338,2.9,3.4,92,0.00,,,0.00,VWS V14.01,2013-03-21 12:29:00,
2013-03-21 08:30:00,41.7,13.3,29.74,NW,315,3.4,3.6,31,0.00,,,0.00,VWS V14.01,2013-03-21 12:30:00,
2013-03-21 08:34:00,27.0,22.5,29.74,NNW,338,2.7,4.7,83,0.00,,,0.00,VWS V14.01,2013-03-21 12:34:00,
2013-03-21 08:39:00,28.2,17.6,29.74,NNW,338,2.2,4.0,64,0.00,,,0.00,VWS V14.01,2013-03-21 12:39:00,
2013-03-21 08:44:00,29.1,15.4,29.74,WNW,292,2.9,4.3,56,0.00,,,0.00,VWS V14.01,2013-03-21 12:44:00,
2013-03-21 08:49:00,29.3,13.4,29.71,NNW,338,3.1,3.1,51,0.00,,,0.00,VWS V14.01,2013-03-21 12:49:00,
2013-03-21 08:54:00,30.4,14.0,29.71,West,270,2.2,2.9,50,0.00,,,0.00,VWS V14.01,2013-03-21 12:54:00,
2013-03-21 08:59:00,32.7,13.7,29.76,WNW,292,4.3,4.3,45,0.00,,,0.00,VWS V14.01,2013-03-21 12:59:00,
2013-03-21 09:00:00,44.4,13.4,29.74,NW,315,2.9,5.4,28,0.00,,,0.00,VWS V14.01,2013-03-21 13:00:00,
2013-03-21 09:04:00,34.0,13.9,29.76,NW,315,2.0,2.9,43,0.00,,,0.00,VWS V14.01,2013-03-21 13:04:00,
2013-03-21 09:09:00,36.7,14.6,29.76,WNW,292,1.6,3.8,40,0.00,,,0.00,VWS V14.01,2013-03-21 13:09:00,
2013-03-21 09:14:00,38.7,14.6,29.74,NW,315,3.6,4.7,37,0.00,,,0.00,VWS V14.01,2013-03-21 13:14:00,
2013-03-21 09:19:00,40.3,14.2,29.74,SW,225,3.4,3.8,34,0.00,,,0.00,VWS V14.01,2013-03-21 13:19:00,
2013-03-21 09:24:00,41.7,13.3,29.74,WNW,292,4.3,6.5,31,0.00,,,0.00,VWS V14.01,2013-03-21 13:24:00,
2013-03-21 09:29:00,41.7,12.6,29.74,WNW,292,3.8,4.9,30,0.00,,,0.00,VWS V14.01,2013-03-21 13:29:00,
2013-03-21 09:30:00,49.3,14.0,29.74,WSW,248,2.9,4.3,24,0.00,,,0.00,VWS V14.01,2013-03-21 13:30:00,
2013-03-21 09:34:00,43.3,13.2,29.74,SW,225,2.7,4.0,29,0.00,,,0.00,VWS V14.01,2013-03-21 13:34:00,
2013-03-21 09:39:00,44.2,14.0,29.74,NW,315,2.0,3.6,29,0.00,,,0.00,VWS V14.01,2013-03-21 13:39:00,
2013-03-21 09:45:00,45.1,14.0,29.74,NW,315,3.8,3.8,28,0.00,,,0.00,VWS V14.01,2013-03-21 13:45:00,
2013-03-21 09:50:00,44.2,13.2,29.74,NNW,338,3.6,5.4,28,0.00,,,0.00,VWS V14.01,2013-03-21 13:50:00,
2013-03-21 09:55:00,44.4,13.4,29.74,WNW,292,3.4,4.0,28,0.00,,,0.00,VWS V14.01,2013-03-21 13:55:00,
2013-03-21 10:00:00,47.3,15.0,29.74,WNW,292,3.1,4.0,27,0.00,,,0.00,VWS V14.01,2013-03-21 14:00:00,
2013-03-21 10:05:00,48.6,16.1,29.74,WNW,292,2.2,3.1,27,0.00,,,0.00,VWS V14.01,2013-03-21 14:05:00,
2013-03-21 10:10:00,48.9,16.4,29.74,SSW,202,3.1,5.6,27,0.00,,,0.00,VWS V14.01,2013-03-21 14:10:00,
2013-03-21 10:15:00,49.5,16.0,29.74,WNW,292,2.7,3.1,26,0.00,,,0.00,VWS V14.01,2013-03-21 14:15:00,
2013-03-21 10:20:00,48.9,13.7,29.74,NW,315,7.2,7.2,24,0.00,,,0.00,VWS V14.01,2013-03-21 14:20:00,
2013-03-21 10:25:00,49.3,14.0,29.74,NNW,338,5.4,5.4,24,0.00,,,0.00,VWS V14.01,2013-03-21 14:25:00,
2013-03-21 10:30:00,48.0,13.0,29.74,NW,315,7.6,8.5,24,0.00,,,0.00,VWS V14.01,2013-03-21 14:30:00,
2013-03-21 10:35:00,49.6,14.3,29.74,South,180,2.9,3.4,24,0.00,,,0.00,VWS V14.01,2013-03-21 14:35:00,
2013-03-21 10:40:00,49.5,14.2,29.74,WNW,292,0.9,4.9,24,0.00,,,0.00,VWS V14.01,2013-03-21 14:40:00,
2013-03-21 10:45:00,47.7,10.7,29.71,WNW,292,3.4,6.9,22,0.00,,,0.00,VWS V14.01,2013-03-21 14:45:00,
2013-03-21 10:50:00,51.4,15.9,29.71,NW,315,2.0,2.0,24,0.00,,,0.00,VWS V14.01,2013-03-21 14:50:00,
2013-03-21 10:55:00,47.7,10.7,29.71,NNW,338,4.3,4.9,22,0.00,,,0.00,VWS V14.01,2013-03-21 14:55:00,
2013-03-21 11:00:00,48.0,11.0,29.71,NW,315,6.5,6.5,22,0.00,,,0.00,VWS V14.01,2013-03-21 15:00:00,
2013-03-21 11:05:00,47.3,10.4,29.71,NNW,338,2.2,6.3,22,0.00,,,0.00,VWS V14.01,2013-03-21 15:05:00,
2013-03-21 11:10:00,51.4,12.8,29.71,WNW,292,4.0,4.0,21,0.00,,,0.00,VWS V14.01,2013-03-21 15:10:00,
2013-03-21 11:15:00,52.7,13.9,29.74,SE,135,2.5,3.4,21,0.00,,,0.00,VWS V14.01,2013-03-21 15:15:00,
2013-03-21 11:20:00,54.7,14.4,29.74,NNW,338,4.9,5.8,20,0.00,,,0.00,VWS V14.01,2013-03-21 15:20:00,
2013-03-21 11:25:00,51.6,13.0,29.74,North,0,3.1,3.1,21,0.00,,,0.00,VWS V14.01,2013-03-21 15:25:00,
2013-03-21 11:30:00,56.3,15.8,29.71,WSW,248,1.1,2.0,20,0.00,,,0.00,VWS V14.01,2013-03-21 15:30:00,
2013-03-21 11:35:00,54.3,11.7,29.71,SW,225,2.9,3.4,18,0.00,,,0.00,VWS V14.01,2013-03-21 15:35:00,
2013-03-21 11:40:00,54.9,12.2,29.71,SSW,202,2.5,3.8,18,0.00,,,0.00,VWS V14.01,2013-03-21 15:40:00,
2013-03-21 11:45:00,56.3,15.8,29.68,ESE,112,3.6,4.9,20,0.00,,,0.00,VWS V14.01,2013-03-21 15:45:00,
2013-03-21 11:50:00,56.5,15.9,29.68,SSW,202,2.9,4.3,20,0.00,,,0.00,VWS V14.01,2013-03-21 15:50:00,
2013-03-21 11:55:00,58.6,16.5,29.68,SSW,202,3.4,3.4,19,0.00,,,0.00,VWS V14.01,2013-03-21 15:55:00,
2013-03-21 12:00:00,59.0,16.8,29.71,SSW,202,5.4,5.4,19,0.00,,,0.00,VWS V14.01,2013-03-21 16:00:00,
2013-03-21 12:05:00,57.6,15.6,29.71,SSE,158,3.1,4.3,19,0.00,,,0.00,VWS V14.01,2013-03-21 16:05:00,
2013-03-21 12:10:00,58.3,16.2,29.71,SE,135,3.4,3.4,19,0.00,,,0.00,VWS V14.01,2013-03-21 16:10:00,
2013-03-21 12:15:00,57.7,15.8,29.68,SSE,158,2.7,6.3,19,0.00,,,0.00,VWS V14.01,2013-03-21 16:15:00,
2013-03-21 12:20:00,57.0,16.4,29.68,SSE,158,3.8,5.8,20,0.00,,,0.00,VWS V14.01,2013-03-21 16:20:00,
2013-03-21 12:25:00,57.4,15.5,29.68,SSE,158,3.1,4.3,19,0.00,,,0.00,VWS V14.01,2013-03-21 16:25:00,
2013-03-21 12:30:00,58.5,16.4,29.68,South,180,3.1,3.8,19,0.00,,,0.00,VWS V14.01,2013-03-21 16:30:00,
2013-03-21 12:35:00,57.6,15.6,29.68,South,180,3.4,4.0,19,0.00,,,0.00,VWS V14.01,2013-03-21 16:35:00,
2013-03-21 12:40:00,57.9,15.9,29.68,SSE,158,2.0,2.2,19,0.00,,,0.00,VWS V14.01,2013-03-21 16:40:00,
2013-03-21 12:46:00,57.6,15.6,29.68,SSW,202,2.5,4.5,19,0.00,,,0.00,VWS V14.01,2013-03-21 16:46:00,
2013-03-21 12:51:00,56.5,15.9,29.68,SSE,158,4.3,5.8,20,0.00,,,0.00,VWS V14.01,2013-03-21 16:51:00,
2013-03-21 12:56:00,55.2,14.9,29.68,ENE,68,3.1,4.9,20,0.00,,,0.00,VWS V14.01,2013-03-21 16:56:00,
2013-03-21 13:00:00,49.8,11.5,29.65,SSE,158,2.5,3.4,21,0.00,,,0.00,VWS V14.01,2013-03-21 17:00:00,
2013-03-21 13:01:00,55.0,14.7,29.65,East,90,2.9,2.9,20,0.00,,,0.00,VWS V14.01,2013-03-21 17:01:00,
2013-03-21 13:06:00,55.4,15.0,29.65,SSW,202,3.4,3.8,20,0.00,,,0.00,VWS V14.01,2013-03-21 17:06:00,
2013-03-21 13:11:00,55.4,15.0,29.65,SSE,158,4.0,5.6,20,0.00,,,0.00,VWS V14.01,2013-03-21 17:11:00,
2013-03-21 13:16:00,55.4,15.0,29.68,WSW,248,2.5,4.0,20,0.00,,,0.00,VWS V14.01,2013-03-21 17:16:00,
2013-03-21 13:21:00,54.5,14.3,29.68,SSE,158,2.2,4.0,20,0.00,,,0.00,VWS V14.01,2013-03-21 17:21:00,
2013-03-21 13:26:00,54.5,14.3,29.68,SSE,158,3.4,4.9,20,0.00,,,0.00,VWS V14.01,2013-03-21 17:26:00,
2013-03-21 13:30:00,45.1,13.2,29.65,South,180,3.8,4.7,27,0.00,,,0.00,VWS V14.01,2013-03-21 17:30:00,
2013-03-21 13:31:00,54.3,14.1,29.68,SSE,158,3.4,3.4,20,0.00,,,0.00,VWS V14.01,2013-03-21 17:31:00,
2013-03-21 13:36:00,54.3,14.1,29.68,East,90,2.5,5.8,20,0.00,,,0.00,VWS V14.01,2013-03-21 17:36:00,
2013-03-21 13:41:00,54.1,14.0,29.68,SSE,158,2.2,3.8,20,0.00,,,0.00,VWS V14.01,2013-03-21 17:41:00,
2013-03-21 13:46:00,53.1,14.2,29.65,SSW,202,3.4,3.4,21,0.00,,,0.00,VWS V14.01,2013-03-21 17:46:00,
2013-03-21 13:51:00,50.5,12.1,29.65,South,180,3.8,6.5,21,0.00,,,0.00,VWS V14.01,2013-03-21 17:51:00,
2013-03-21 13:56:00,49.6,11.3,29.65,East,90,3.4,3.4,21,0.00,,,0.00,VWS V14.01,2013-03-21 17:56:00,
2013-03-21 14:00:00,42.3,12.3,29.65,SSE,158,2.9,4.0,29,0.00,,,0.00,VWS V14.01,2013-03-21 18:00:00,
2013-03-21 14:01:00,48.4,13.3,29.65,SSE,158,1.6,4.0,24,0.00,,,0.00,VWS V14.01,2013-03-21 18:01:00,
2013-03-21 14:06:00,48.2,13.1,29.65,SSE,158,3.1,4.3,24,0.00,,,0.00,VWS V14.01,2013-03-21 18:06:00,
2013-03-21 14:11:00,46.9,12.1,29.65,SSE,158,2.2,4.7,24,0.00,,,0.00,VWS V14.01,2013-03-21 18:11:00,
2013-03-21 14:16:00,46.8,11.9,29.65,SSE,158,3.1,3.6,24,0.00,,,0.00,VWS V14.01,2013-03-21 18:16:00,
2013-03-21 14:21:00,45.5,11.7,29.65,SSE,158,3.8,6.0,25,0.00,,,0.00,VWS V14.01,2013-03-21 18:21:00,
2013-03-21 14:26:00,45.0,13.0,29.65,SSE,158,4.0,4.0,27,0.00,,,0.00,VWS V14.01,2013-03-21 18:26:00,
2013-03-21 14:30:00,40.5,10.7,29.65,SSE,158,3.1,3.8,29,0.00,,,0.00,VWS V14.01,2013-03-21 18:30:00,
2013-03-21 14:31:00,44.2,13.2,29.65,SSE,158,3.1,4.9,28,0.00,,,0.00,VWS V14.01,2013-03-21 18:31:00,
2013-03-21 14:37:00,43.2,12.3,29.65,SSE,158,2.7,4.3,28,0.00,,,0.00,VWS V14.01,2013-03-21 18:37:00,
2013-03-21 14:42:00,42.8,12.0,29.65,South,180,3.6,4.9,28,0.00,,,0.00,VWS V14.01,2013-03-21 18:42:00,
2013-03-21 14:47:00,42.8,12.0,29.65,SSE,158,4.3,6.0,28,0.00,,,0.00,VWS V14.01,2013-03-21 18:47:00,
2013-03-21 14:52:00,42.3,12.3,29.65,SSE,158,1.6,4.9,29,0.00,,,0.00,VWS V14.01,2013-03-21 18:52:00,
2013-03-21 14:57:00,42.4,12.4,29.65,SSW,202,4.7,5.4,29,0.00,,,0.00,VWS V14.01,2013-03-21 18:57:00,
2013-03-21 15:00:00,40.8,11.0,29.62,SSE,158,3.4,4.3,29,0.00,,,0.00,VWS V14.01,2013-03-21 19:00:00,
2013-03-21 15:02:00,43.0,12.1,29.65,SSE,158,4.3,4.3,28,0.00,,,0.00,VWS V14.01,2013-03-21 19:02:00,
2013-03-21 15:07:00,43.9,12.9,29.65,SSE,158,2.0,2.7,28,0.00,,,0.00,VWS V14.01,2013-03-21 19:07:00,
2013-03-21 15:12:00,43.3,13.2,29.65,SSE,158,3.4,4.0,29,0.00,,,0.00,VWS V14.01,2013-03-21 19:12:00,
2013-03-21 15:17:00,42.1,12.1,29.65,SSE,158,3.1,4.7,29,0.00,,,0.00,VWS V14.01,2013-03-21 19:17:00,
2013-03-21 15:22:00,40.6,10.9,29.65,SSE,158,3.4,4.0,29,0.00,,,0.00,VWS V14.01,2013-03-21 19:22:00,
2013-03-21 15:27:00,40.3,11.3,29.65,SSE,158,4.0,5.6,30,0.00,,,0.00,VWS V14.01,2013-03-21 19:27:00,
2013-03-21 15:30:00,40.3,10.6,29.62,South,180,3.1,3.6,29,0.00,,,0.00,VWS V14.01,2013-03-21 19:30:00,
2013-03-21 15:32:00,39.9,11.0,29.65,SSE,158,2.7,3.1,30,0.00,,,0.00,VWS V14.01,2013-03-21 19:32:00,
2013-03-21 15:37:00,40.3,11.3,29.65,SSE,158,3.1,4.0,30,0.00,,,0.00,VWS V14.01,2013-03-21 19:37:00,
2013-03-21 15:42:00,40.6,11.6,29.65,SSE,158,2.5,2.9,30,0.00,,,0.00,VWS V14.01,2013-03-21 19:42:00,
2013-03-21 15:47:00,40.8,11.8,29.62,SSE,158,1.3,2.7,30,0.00,,,0.00,VWS V14.01,2013-03-21 19:47:00,
2013-03-21 15:52:00,40.8,11.0,29.62,SSE,158,4.3,4.3,29,0.00,,,0.00,VWS V14.01,2013-03-21 19:52:00,
2013-03-21 15:57:00,40.8,11.0,29.62,SSE,158,1.6,2.5,29,0.00,,,0.00,VWS V14.01,2013-03-21 19:57:00,
2013-03-21 16:00:00,39.6,9.9,29.59,SSW,202,2.9,4.5,29,0.00,,,0.00,VWS V14.01,2013-03-21 20:00:00,
2013-03-21 16:02:00,41.0,11.2,29.62,SSE,158,2.5,3.4,29,0.00,,,0.00,VWS V14.01,2013-03-21 20:02:00,
2013-03-21 16:07:00,41.2,11.4,29.62,SSE,158,2.7,2.9,29,0.00,,,0.00,VWS V14.01,2013-03-21 20:07:00,
2013-03-21 16:12:00,40.6,10.9,29.62,SSE,158,2.7,3.6,29,0.00,,,0.00,VWS V14.01,2013-03-21 20:12:00,
2013-03-21 16:17:00,40.3,10.6,29.62,South,180,4.3,4.3,29,0.00,,,0.00,VWS V14.01,2013-03-21 20:17:00,
2013-03-21 16:23:00,40.3,10.6,29.62,South,180,3.6,3.6,29,0.00,,,0.00,VWS V14.01,2013-03-21 20:23:00,
2013-03-21 16:28:00,40.5,10.7,29.62,SSE,158,3.1,3.6,29,0.00,,,0.00,VWS V14.01,2013-03-21 20:28:00,
2013-03-21 16:30:00,39.0,11.0,29.62,South,180,3.1,3.8,31,0.00,,,0.00,VWS V14.01,2013-03-21 20:30:00,
2013-03-21 16:33:00,40.5,11.5,29.59,SSE,158,2.0,3.1,30,0.00,,,0.00,VWS V14.01,2013-03-21 20:33:00,
2013-03-21 16:38:00,41.0,11.2,29.59,SSE,158,2.5,2.7,29,0.00,,,0.00,VWS V14.01,2013-03-21 20:38:00,
2013-03-21 16:43:00,40.5,11.5,29.59,South,180,4.3,4.3,30,0.00,,,0.00,VWS V14.01,2013-03-21 20:43:00,
2013-03-21 16:48:00,40.1,11.2,29.59,SSE,158,2.5,5.6,30,0.00,,,0.00,VWS V14.01,2013-03-21 20:48:00,
2013-03-21 16:53:00,39.6,9.9,29.59,South,180,2.7,2.9,29,0.00,,,0.00,VWS V14.01,2013-03-21 20:53:00,
2013-03-21 16:58:00,39.0,10.2,29.59,South,180,2.7,4.0,30,0.00,,,0.00,VWS V14.01,2013-03-21 20:58:00,
2013-03-21 17:00:00,38.5,11.9,29.62,South,180,2.0,3.1,33,0.00,,,0.00,VWS V14.01,2013-03-21 21:00:00,
2013-03-21 17:03:00,38.8,10.1,29.62,South,180,2.9,3.4,30,0.00,,,0.00,VWS V14.01,2013-03-21 21:03:00,
2013-03-21 17:08:00,39.6,10.7,29.62,SSE,158,2.5,2.5,30,0.00,,,0.00,VWS V14.01,2013-03-21 21:08:00,
2013-03-21 17:13:00,39.6,10.7,29.62,South,180,1.3,2.7,30,0.00,,,0.00,VWS V14.01,2013-03-21 21:13:00,
2013-03-21 17:18:00,39.2,10.4,29.62,SSE,158,2.7,2.9,30,0.00,,,0.00,VWS V14.01,2013-03-21 21:18:00,
2013-03-21 17:23:00,39.0,11.0,29.62,South,180,3.4,3.4,31,0.00,,,0.00,VWS V14.01,2013-03-21 21:23:00,
2013-03-21 17:28:00,38.7,10.6,29.62,SSE,158,1.3,4.3,31,0.00,,,0.00,VWS V14.01,2013-03-21 21:28:00,
2013-03-21 17:30:00,34.7,12.9,29.62,SSE,158,0.0,1.6,40,0.00,,,0.00,VWS V14.01,2013-03-21 21:30:00,
2013-03-21 17:33:00,38.7,10.6,29.59,SSE,158,2.7,2.9,31,0.00,,,0.00,VWS V14.01,2013-03-21 21:33:00,
2013-03-21 17:38:00,39.0,11.0,29.59,SSE,158,3.1,3.4,31,0.00,,,0.00,VWS V14.01,2013-03-21 21:38:00,
2013-03-21 17:43:00,38.7,10.6,29.59,SSE,158,2.5,3.6,31,0.00,,,0.00,VWS V14.01,2013-03-21 21:43:00,
2013-03-21 17:49:00,38.1,10.9,29.62,SSE,158,2.9,3.1,32,0.00,,,0.00,VWS V14.01,2013-03-21 21:49:00,
2013-03-21 17:54:00,38.5,11.9,29.62,South,180,2.2,3.1,33,0.00,,,0.00,VWS V14.01,2013-03-21 21:54:00,
2013-03-21 17:59:00,38.5,11.9,29.62,South,180,2.9,3.1,33,0.00,,,0.00,VWS V14.01,2013-03-21 21:59:00,
2013-03-21 18:00:00,31.6,11.7,29.59,SSE,158,0.0,1.1,43,0.00,,,0.00,VWS V14.01,2013-03-21 22:00:00,
2013-03-21 18:04:00,36.9,11.1,29.62,SSW,202,3.1,3.1,34,0.00,,,0.00,VWS V14.01,2013-03-21 22:04:00,
2013-03-21 18:09:00,36.1,11.8,29.62,SSE,158,3.8,3.8,36,0.00,,,0.00,VWS V14.01,2013-03-21 22:09:00,
2013-03-21 18:14:00,35.6,11.9,29.62,SSE,158,2.5,2.9,37,0.00,,,0.00,VWS V14.01,2013-03-21 22:14:00,
2013-03-21 18:19:00,35.1,12.0,29.62,SSE,158,1.6,1.6,38,0.00,,,0.00,VWS V14.01,2013-03-21 22:19:00,
2013-03-21 18:24:00,34.7,12.9,29.62,SSE,158,0.0,1.6,40,0.00,,,0.00,VWS V14.01,2013-03-21 22:24:00,
2013-03-21 18:29:00,34.3,12.5,29.62,SSE,158,2.2,2.5,40,0.00,,,0.00,VWS V14.01,2013-03-21 22:29:00,
2013-03-21 18:30:00,28.6,10.9,29.62,SSE,158,1.3,2.2,47,0.00,,,0.00,VWS V14.01,2013-03-21 22:30:00,
2013-03-21 18:34:00,33.8,12.1,29.62,SSE,158,0.0,1.3,40,0.00,,,0.00,VWS V14.01,2013-03-21 22:34:00,
2013-03-21 18:39:00,33.3,12.1,29.62,SSE,158,0.0,0.0,41,0.00,,,0.00,VWS V14.01,2013-03-21 22:39:00,
2013-03-21 18:44:00,32.7,12.2,29.62,SSE,158,1.3,1.3,42,0.00,,,0.00,VWS V14.01,2013-03-21 22:44:00,
2013-03-21 18:49:00,32.2,12.2,29.59,SSE,158,1.3,2.0,43,0.00,,,0.00,VWS V14.01,2013-03-21 22:49:00,
2013-03-21 18:54:00,31.6,11.7,29.59,SSE,158,0.0,1.1,43,0.00,,,0.00,VWS V14.01,2013-03-21 22:54:00,
2013-03-21 18:59:00,31.3,12.4,29.59,SSE,158,1.1,1.6,45,0.00,,,0.00,VWS V14.01,2013-03-21 22:59:00,
2013-03-21 19:00:00,26.1,11.7,29.62,SSE,158,0.0,0.0,54,0.00,,,0.00,VWS V14.01,2013-03-21 23:00:00,
2013-03-21 19:04:00,30.7,11.9,29.62,SSE,158,0.0,0.0,45,0.00,,,0.00,VWS V14.01,2013-03-21 23:04:00,
2013-03-21 19:09:00,30.2,12.4,29.62,SSE,158,0.0,0.0,47,0.00,,,0.00,VWS V14.01,2013-03-21 23:09:00,
2013-03-21 19:14:00,29.7,11.9,29.62,SSE,158,0.0,0.0,47,0.00,,,0.00,VWS V14.01,2013-03-21 23:14:00,
2013-03-21 19:19:00,29.1,12.4,29.62,SSE,158,0.0,0.0,49,0.00,,,0.00,VWS V14.01,2013-03-21 23:19:00,
2013-03-21 19:24:00,28.6,10.9,29.62,SSE,158,1.3,2.2,47,0.00,,,0.00,VWS V14.01,2013-03-21 23:24:00,
2013-03-21 19:29:00,28.0,12.3,29.62,SSE,158,0.0,0.0,51,0.00,,,0.00,VWS V14.01,2013-03-21 23:29:00,
2013-03-21 19:30:00,24.4,10.6,29.59,SSE,158,2.0,2.0,55,0.00,,,0.00,VWS V14.01,2013-03-21 23:30:00,
2013-03-21 19:34:00,27.5,11.8,29.59,SSE,158,0.0,0.0,51,0.00,,,0.00,VWS V14.01,2013-03-21 23:34:00,
2013-03-21 19:39:00,27.1,11.4,29.59,SSE,158,0.0,0.0,51,0.00,,,0.00,VWS V14.01,2013-03-21 23:39:00,
2013-03-21 19:44:00,26.6,11.8,29.59,SSE,158,0.0,0.0,53,0.00,,,0.00,VWS V14.01,2013-03-21 23:44:00,
2013-03-21 19:49:00,26.4,11.2,29.62,SSE,158,0.0,0.0,52,0.00,,,0.00,VWS V14.01,2013-03-21 23:49:00,
2013-03-21 19:54:00,26.1,11.7,29.62,SSE,158,0.0,0.0,54,0.00,,,0.00,VWS V14.01,2013-03-21 23:54:00,
2013-03-21 19:59:00,25.7,10.9,29.62,SSE,158,0.0,0.0,53,0.00,,,0.00,VWS V14.01,2013-03-21 23:59:00,
2013-03-21 20:00:00,22.5,13.8,29.62,SSE,158,0.0,0.0,69,0.00,,,0.00,VWS V14.01,2013-03-22 00:00:00,
2013-03-21 20:04:00,25.5,11.2,29.59,SSE,158,0.0,0.0,54,0.00,,,0.00,VWS V14.01,2013-03-22 00:04:00,
2013-03-21 20:09:00,25.5,10.8,29.59,SSE,158,0.0,0.0,53,0.00,,,0.00,VWS V14.01,2013-03-22 00:09:00,
2013-03-21 20:14:00,25.0,11.5,29.59,SSE,158,0.0,0.0,56,0.00,,,0.00,VWS V14.01,2013-03-22 00:14:00,
2013-03-21 20:19:00,24.6,10.8,29.59,SSE,158,0.0,0.0,55,0.00,,,0.00,VWS V14.01,2013-03-22 00:19:00,
2013-03-21 20:24:00,24.4,10.6,29.59,SSE,158,1.3,2.0,55,0.00,,,0.00,VWS V14.01,2013-03-22 00:24:00,
2013-03-21 20:29:00,23.7,12.2,29.62,SSE,158,2.0,2.5,61,0.00,,,0.00,VWS V14.01,2013-03-22 00:29:00,
2013-03-21 20:30:00,21.4,14.1,29.62,SSW,202,0.0,0.0,73,0.00,,,0.00,VWS V14.01,2013-03-22 00:30:00,
2013-03-21 20:34:00,23.5,12.8,29.62,SSE,158,0.0,0.0,63,0.00,,,0.00,VWS V14.01,2013-03-22 00:34:00,
2013-03-21 20:39:00,23.2,12.5,29.62,SSE,158,0.0,0.0,63,0.00,,,0.00,VWS V14.01,2013-03-22 00:39:00,
2013-03-21 20:44:00,23.0,12.3,29.62,SSE,158,1.1,2.0,63,0.00,,,0.00,VWS V14.01,2013-03-22 00:44:00,
2013-03-21 20:49:00,23.0,15.0,29.62,SSE,158,0.0,1.6,71,0.00,,,0.00,VWS V14.01,2013-03-22 00:49:00,
2013-03-21 20:55:00,22.5,13.8,29.62,SSE,158,0.0,0.0,69,0.00,,,0.00,VWS V14.01,2013-03-22 00:55:00,
2013-03-21 21:00:00,22.6,14.0,29.62,SSE,158,0.0,0.0,69,0.00,,,0.00,VWS V14.01,2013-03-22 01:00:00,
2013-03-21 21:05:00,22.5,13.2,29.62,SSE,158,1.1,1.3,67,0.00,,,0.00,VWS V14.01,2013-03-22 01:05:00,
2013-03-21 21:10:00,22.5,15.4,29.62,SSW,202,2.2,2.9,74,0.00,,,0.00,VWS V14.01,2013-03-22 01:10:00,
2013-03-21 21:15:00,21.9,14.9,29.62,SSW,202,0.0,0.0,74,0.00,,,0.00,VWS V14.01,2013-03-22 01:15:00,
2013-03-21 21:20:00,21.7,14.4,29.62,SSW,202,0.0,0.0,73,0.00,,,0.00,VWS V14.01,2013-03-22 01:20:00,
2013-03-21 21:25:00,21.4,14.1,29.62,SSW,202,0.0,0.0,73,0.00,,,0.00,VWS V14.01,2013-03-22 01:25:00,
2013-03-21 21:30:00,21.2,13.6,29.62,SSW,202,0.0,0.0,72,0.00,,,0.00,VWS V14.01,2013-03-22 01:30:00,
2013-03-21 21:35:00,20.8,13.9,29.62,SSW,202,0.0,0.0,74,0.00,,,0.00,VWS V14.01,2013-03-22 01:35:00,
2013-03-21 21:40:00,20.5,13.5,29.62,SSW,202,0.0,0.0,74,0.00,,,0.00,VWS V14.01,2013-03-22 01:40:00,
2013-03-21 21:45:00,20.5,13.5,29.62,SSW,202,0.0,0.0,74,0.00,,,0.00,VWS V14.01,2013-03-22 01:45:00,
2013-03-21 21:50:00,19.9,13.0,29.62,SSW,202,0.0,0.0,74,0.00,,,0.00,VWS V14.01,2013-03-22 01:50:00,
2013-03-21 21:55:00,19.8,12.8,29.62,SSW,202,0.0,0.0,74,0.00,,,0.00,VWS V14.01,2013-03-22 01:55:00,
2013-03-21 22:00:00,19.6,12.0,29.59,SSW,202,1.1,2.0,72,0.00,,,0.00,VWS V14.01,2013-03-22 02:00:00,
2013-03-21 22:05:00,19.0,11.5,29.59,SSW,202,1.1,2.0,72,0.00,,,0.00,VWS V14.01,2013-03-22 02:05:00,
2013-03-21 22:10:00,18.7,11.5,29.59,SSW,202,0.0,0.0,73,0.00,,,0.00,VWS V14.01,2013-03-22 02:10:00,
2013-03-21 22:15:00,19.0,12.4,29.59,SSW,202,0.0,0.0,75,0.00,,,0.00,VWS V14.01,2013-03-22 02:15:00,
2013-03-21 22:20:00,18.3,11.1,29.59,SSW,202,1.6,2.2,73,0.00,,,0.00,VWS V14.01,2013-03-22 02:20:00,
2013-03-21 22:25:00,17.8,10.9,29.59,SSW,202,2.0,2.0,74,0.00,,,0.00,VWS V14.01,2013-03-22 02:25:00,
2013-03-21 22:30:00,17.4,10.6,29.59,SW,225,2.5,2.9,74,0.00,,,0.00,VWS V14.01,2013-03-22 02:30:00,
2013-03-21 22:35:00,16.7,10.5,29.59,WNW,292,2.0,2.5,76,0.00,,,0.00,VWS V14.01,2013-03-22 02:35:00,
2013-03-21 22:40:00,17.1,11.1,29.59,WNW,292,2.2,2.2,77,0.00,,,0.00,VWS V14.01,2013-03-22 02:40:00,
2013-03-21 22:45:00,17.1,11.4,29.59,WNW,292,1.3,1.6,78,0.00,,,0.00,VWS V14.01,2013-03-22 02:45:00,
2013-03-21 22:50:00,17.2,11.6,29.59,WNW,292,0.0,1.1,78,0.00,,,0.00,VWS V14.01,2013-03-22 02:50:00,
2013-03-21 22:55:00,17.2,11.6,29.59,WNW,292,1.6,1.6,78,0.00,,,0.00,VWS V14.01,2013-03-22 02:55:00,
2013-03-21 23:00:00,17.4,11.8,29.59,WNW,292,0.0,1.3,78,0.00,,,0.00,VWS V14.01,2013-03-22 03:00:00,
2013-03-21 23:05:00,17.1,11.1,29.59,WNW,292,0.0,0.0,77,0.00,,,0.00,VWS V14.01,2013-03-22 03:05:00,
2013-03-21 23:06:00,15.1,11.9,29.56,NNW,338,2.5,2.5,87,0.00,,,0.00,VWS V14.01,2013-03-22 03:06:00,
2013-03-21 23:07:00,14.5,11.4,29.56,NNW,338,2.9,2.9,87,0.00,,,0.00,VWS V14.01,2013-03-22 03:07:00,
2013-03-21 23:08:00,14.5,11.4,29.56,NNW,338,3.1,3.1,87,0.00,,,0.00,VWS V14.01,2013-03-22 03:08:00,
2013-03-21 23:09:00,14.5,11.4,29.56,NNW,338,2.7,3.1,87,0.00,,,0.00,VWS V14.01,2013-03-22 03:09:00,
2013-03-21 23:10:00,16.5,10.3,29.59,WNW,292,1.6,2.0,76,0.00,,,0.00,VWS V14.01,2013-03-22 03:10:00,
2013-03-21 23:11:00,15.4,12.8,29.56,NNW,338,2.9,3.6,89,0.00,,,0.00,VWS V14.01,2013-03-22 03:11:00,
2013-03-21 23:12:00,15.4,12.8,29.56,NNW,338,2.5,2.9,89,0.00,,,0.00,VWS V14.01,2013-03-22 03:12:00,
2013-03-21 23:13:00,15.1,12.4,29.56,NNW,338,2.7,3.1,89,0.00,,,0.00,VWS V14.01,2013-03-22 03:13:00,
2013-03-21 23:14:00,15.3,12.6,29.56,NNW,338,2.7,3.1,89,0.00,,,0.00,VWS V14.01,2013-03-22 03:14:00,
2013-03-21 23:15:00,16.3,10.4,29.59,NNW,338,2.5,2.9,77,0.00,,,0.00,VWS V14.01,2013-03-22 03:15:00,
2013-03-21 23:17:00,14.5,11.9,29.56,NNW,338,0.0,0.0,89,0.00,,,0.00,VWS V14.01,2013-03-22 03:17:00,
2013-03-21 23:18:00,14.5,11.9,29.56,NNW,338,0.0,0.0,89,0.00,,,0.00,VWS V14.01,2013-03-22 03:18:00,
2013-03-21 23:20:00,16.3,11.0,29.59,NNW,338,2.5,2.9,79,0.00,,,0.00,VWS V14.01,2013-03-22 03:20:00,
2013-03-21 23:25:00,16.3,11.5,29.59,NNW,338,2.7,2.9,81,0.00,,,0.00,VWS V14.01,2013-03-22 03:25:00,
2013-03-21 23:30:00,16.0,11.5,29.59,NNW,338,2.0,2.5,82,0.00,,,0.00,VWS V14.01,2013-03-22 03:30:00,
2013-03-21 23:35:00,15.6,11.1,29.59,NNW,338,2.9,2.9,82,0.00,,,0.00,VWS V14.01,2013-03-22 03:35:00,
2013-03-21 23:40:00,16.2,12.2,29.59,NNW,338,2.0,2.5,84,0.00,,,0.00,VWS V14.01,2013-03-22 03:40:00,
2013-03-21 23:45:00,16.5,12.8,29.56,NNW,338,2.0,2.2,85,0.00,,,0.00,VWS V14.01,2013-03-22 03:45:00,
2013-03-21 23:50:00,16.9,13.4,29.56,NNW,338,2.5,2.7,86,0.00,,,0.00,VWS V14.01,2013-03-22 03:50:00,
2013-03-21 23:55:00,15.8,12.6,29.56,NNW,338,2.0,3.1,87,0.00,,,0.00,VWS V14.01,2013-03-22 03:55:00,